"STATION_ID","USDM_WEEK","SMVWC_5_CM_MEAN","SMANOM_5_CM_MEAN","SMPERC_5_CM_30COUNTS","SMPERC_5_CM_70COUNTS","SMVWC_10_CM_MEAN","SMANOM_10_CM_MEAN","SMPERC_10_CM_30COUNTS","SMPERC_10_CM_70COUNTS","SMVWC_20_CM_MEAN","SMANOM_20_CM_MEAN","SMPERC_20_CM_30COUNTS","SMPERC_20_CM_70COUNTS","SMVWC_50_CM_MEAN","SMANOM_50_CM_MEAN","SMPERC_50_CM_30COUNTS","SMPERC_50_CM_70COUNTS","SMVWC_100_CM_MEAN","SMANOM_100_CM_MEAN","SMPERC_100_CM_30COUNTS","SMPERC_100_CM_70COUNTS","SMVWC_TOP_MEAN","SMANOM_TOP_MEAN","SMPERC_TOP_30COUNTS","SMPERC_TOP_70COUNTS","SMVWC_COLUMN_MEAN","SMANOM_COLUMN_MEAN","SMPERC_COLUMN_30COUNTS","SMPERC_COLUMN_70COUNTS"
1531,20110726,0.087,5.274,0,1,0.116,2.923,0,1,0.114,2.58,0,1,0.098,1.295,0,1,0.161,3.85,0,1,0.102,5.108,0,1,0.115,4.112,0,1
1531,20110802,0.078,5.691,0,1,0.115,2.843,0,1,0.114,2.527,0,1,0.098,1.295,0,1,0.166,4.028,0,1,0.097,4.987,0,1,0.114,4.038,0,1
1531,20110809,0.058,5.29,0,1,0.114,2.718,0,1,0.113,2.404,0,1,0.099,1.302,0,1,0.166,3.644,0,1,0.086,4.546,0,1,0.11,3.734,0,1
1531,20110816,0.042,4.964,0,1,0.11,2.518,0,1,0.111,2.368,0,1,0.098,1.285,0,1,0.165,3.436,0,1,0.076,4.078,0,1,0.105,3.367,0,1
1531,20110823,0.027,3.181,0,1,0.104,2.134,0,1,0.108,2.203,0,1,0.097,1.221,0,1,0.165,3.329,0,1,0.065,2.911,0,1,0.1,2.837,0,1
1531,20110830,0.02,2.373,0,1,0.098,1.818,0,1,0.102,1.955,0,1,0.094,1.084,0,1,0.164,3.211,0,1,0.059,2.211,0,1,0.096,2.45,0,1
1531,20110906,0.015,1.558,0,1,0.095,1.656,0,1,0.097,1.743,0,1,0.09,0.902,0,1,0.164,3.199,0,1,0.055,1.798,0,1,0.092,2.191,0,1
1531,20110913,0.013,0.988,0,1,0.092,1.543,0,1,0.094,1.666,0,1,0.087,0.757,0,1,0.163,3.092,0,1,0.052,1.522,0,1,0.09,2.027,0,1
1531,20110920,0.011,0.685,0,0.863,0.088,1.369,0,1,0.091,1.613,0,1,0.085,0.692,0,1,0.162,3.039,0,1,0.05,1.274,0,1,0.087,1.923,0,1
1531,20110927,0.008,0.067,0.071,0.185,0.084,0.996,0,1,0.088,0.944,0,1,0.082,0.532,0,0.69,0.16,2.868,0,1,0.046,0.84,0,1,0.084,1.606,0,1
1531,20111004,0.011,0.568,0.083,0.405,0.08,0.674,0,0.958,0.09,0.827,0,1,0.087,0.725,0,0.143,0.158,2.761,0,1,0.046,0.652,0,0.994,0.085,1.229,0,1
1531,20111011,0.06,5.829,0,1,0.122,1.698,0,1,0.184,4.157,0,1,0.178,3.9,0,1,0.196,4.602,0,1,0.091,2.958,0,1,0.148,3.492,0,1
1531,20111018,0.062,3.86,0,1,0.138,1.887,0,1,0.182,2.99,0,1,0.173,2.38,0,1,0.213,4.911,0,1,0.1,2.554,0,1,0.154,3.032,0,1
1531,20111025,0.048,1.895,0,1,0.131,1.312,0,1,0.16,1.651,0,1,0.152,1.451,0,1,0.211,3.219,0,1,0.09,1.559,0,1,0.14,1.909,0,1
1531,20111101,0.039,0.912,0,1,0.124,0.98,0,1,0.15,1.301,0,1,0.144,1.319,0,1,0.207,3.222,0,1,0.082,1.172,0,1,0.133,1.775,0,1
1531,20111108,0.046,0.653,0,0.958,0.12,0.734,0,1,0.147,0.943,0,1,0.141,0.892,0,1,0.205,2.913,0,1,0.083,0.895,0,1,0.131,1.264,0,1
1531,20111115,0.057,0.396,0,0.589,0.123,0.586,0,0.935,0.148,0.59,0,1,0.142,0.511,0,0.881,0.203,1.453,0,1,0.09,0.552,0,1,0.135,0.708,0,1
1531,20111122,0.067,0.24,0,0.143,0.138,0.335,0,0.321,0.164,0.6,0,0.667,0.145,0.271,0,0.226,0.204,1.139,0,1,0.103,0.3,0,0.417,0.144,0.503,0,0.988
1531,20111129,0.075,0.088,0,0.048,0.178,0.507,0,0.946,0.194,0.619,0,1,0.169,0.374,0,0.446,0.216,0.882,0,1,0.127,0.269,0,0.31,0.166,0.446,0,0.839
1531,20111206,0.063,-0.312,0.405,0,0.165,0.178,0,0.006,0.175,0.201,0,0.119,0.159,0.098,0,0,0.216,0.727,0,1,0.114,-0.118,0,0,0.156,0.151,0,0
1531,20111213,0.055,-0.622,1,0,0.152,-0.142,0,0,0.162,-0.158,0,0,0.151,-0.218,0.006,0,0.21,0.74,0,1,0.104,-0.412,0.833,0,0.146,-0.16,0,0
1531,20111220,0.07,-0.602,0.964,0,0.149,-0.185,0.161,0,0.156,-0.349,0.321,0,0.146,-0.378,0.679,0,0.21,0.724,0,1,0.11,-0.438,0.5,0,0.146,-0.216,0.149,0
1531,20111227,0.064,-0.696,1,0,0.147,-0.165,0,0,0.151,-0.399,0.375,0,0.142,-0.443,0.845,0,0.206,0.628,0,1,0.106,-0.518,0.935,0,0.142,-0.334,0.107,0
1531,20120103,0.071,-0.625,0.714,0,0.144,-0.282,0,0,0.146,-0.518,0.881,0,0.139,-0.54,1,0,0.205,0.543,0,1,0.107,-0.584,0.571,0,0.141,-0.453,0.417,0
1531,20120110,0.069,-0.546,0.613,0,0.142,-0.354,0.006,0,0.143,-0.531,0.506,0,0.135,-0.603,1,0,0.204,0.58,0,1,0.106,-0.566,0.143,0,0.139,-0.456,0.137,0
1531,20120117,0.063,-0.594,0.821,0,0.132,-0.562,0.863,0,0.138,-0.603,0.976,0,0.13,-0.675,1,0,0.202,0.696,0,1,0.098,-0.666,0.946,0,0.133,-0.622,1,0
1531,20120124,0.084,-0.501,0.357,0,0.182,0.027,0.393,0.512,0.195,0.355,0.387,0.542,0.173,0.197,0.476,0.506,0.226,1.883,0,1,0.133,-0.309,0.357,0,0.172,-0.01,0.393,0.494
1531,20120131,0.085,-0.561,0.863,0,0.201,0.269,0,0.464,0.201,0.526,0,0.69,0.184,0.498,0,0.56,0.249,2.664,0,1,0.143,-0.295,0.298,0,0.184,0.237,0,0.399
1531,20120207,0.083,-0.602,1,0,0.181,-0.036,0,0,0.178,0.069,0,0,0.165,0.028,0,0,0.237,1.719,0,1,0.132,-0.474,1,0,0.169,-0.086,0,0
1531,20120214,0.107,-0.274,0.446,0,0.207,0.555,0,0.94,0.174,0.083,0,0.095,0.158,-0.063,0,0,0.23,1.278,0,1,0.157,0.059,0.024,0.179,0.175,0.244,0,0.494
1531,20120221,0.112,-0.171,0.101,0,0.204,0.506,0,0.685,0.184,0.373,0,0.494,0.163,0.149,0,0,0.228,0.983,0,1,0.158,0.128,0,0.03,0.178,0.376,0,0.423
1531,20120228,0.091,-0.464,1,0,0.172,-0.035,0,0,0.169,0.154,0,0,0.157,0.057,0,0,0.227,0.848,0,1,0.132,-0.349,0.405,0,0.163,0.028,0,0
1531,20120306,0.08,-0.548,1,0,0.146,-0.419,0.429,0,0.156,-0.067,0,0,0.149,-0.106,0,0,0.221,0.779,0,0.905,0.114,-0.555,1,0,0.151,-0.183,0,0
1531,20120313,0.066,-0.707,1,0,0.13,-0.7,1,0,0.146,-0.243,0.095,0,0.142,-0.248,0,0,0.218,0.813,0,1,0.099,-0.806,1,0,0.14,-0.451,0.637,0
1531,20120320,0.136,-0.064,0.065,0,0.219,0.591,0.024,0.857,0.201,0.701,0.06,0.851,0.185,0.547,0,0.899,0.23,1.195,0,1,0.178,0.194,0.048,0.161,0.194,0.56,0.024,0.851
1531,20120327,0.129,-0.126,0.393,0.155,0.21,0.414,0,0.369,0.194,0.511,0,0.482,0.176,0.354,0,0.417,0.235,1.525,0,1,0.17,0.113,0,0.28,0.189,0.444,0,0.393
1531,20120403,0.147,0.14,0,0.107,0.226,0.676,0,1,0.206,0.774,0,1,0.187,0.646,0,1,0.241,1.953,0,1,0.187,0.422,0,0.512,0.201,0.743,0,1
1531,20120410,0.118,-0.219,0.435,0,0.191,0.151,0,0.095,0.181,0.288,0,0.226,0.17,0.253,0,0.208,0.238,1.784,0,1,0.155,-0.04,0,0,0.18,0.294,0,0.179
1531,20120417,0.146,0.352,0.024,0.714,0.205,0.557,0,0.732,0.177,0.333,0,0.536,0.167,0.321,0,0.542,0.232,1.581,0,1,0.176,0.443,0,0.732,0.186,0.552,0,0.732
1531,20120424,0.117,0.266,0,0.042,0.186,0.612,0,1,0.171,0.483,0,0.929,0.162,0.431,0,0.952,0.233,1.667,0,1,0.152,0.402,0,0.393,0.174,0.552,0,1
1531,20120501,0.093,0.309,0,0.157,0.156,0.538,0,1,0.15,0.509,0,0.958,0.151,0.491,0,0.994,0.23,1.819,0,1,0.125,0.422,0,0.946,0.156,0.613,0,1
1531,20120508,0.096,0.782,0,0.696,0.153,1.037,0,0.869,0.129,0.43,0,0.274,0.138,0.518,0,0.994,0.224,1.815,0,1,0.124,0.955,0,0.714,0.148,0.87,0,1
1531,20120515,0.076,0.7,0,1,0.128,0.931,0,1,0.118,0.449,0,0.435,0.125,0.512,0,0.738,0.218,1.887,0,1,0.102,0.835,0,1,0.133,0.843,0,1
1531,20120522,0.059,0.55,0,0.893,0.11,0.844,0,1,0.11,0.539,0,1,0.114,0.52,0,0.72,0.21,1.954,0,1,0.084,0.721,0,1,0.12,0.816,0,1
1531,20120529,0.047,0.462,0,0.423,0.098,0.723,0,1,0.1,0.498,0,0.577,0.104,0.421,0,0.083,0.193,1.756,0,1,0.073,0.565,0,0.589,0.109,0.717,0,1
1531,20120605,0.039,0.286,0,0,0.09,0.596,0,0.994,0.092,0.495,0,0.565,0.095,0.38,0,0.006,0.167,1.169,0,1,0.065,0.417,0,0,0.097,0.613,0,1
1531,20120612,0.032,0.199,0,0.024,0.084,0.485,0,0.893,0.085,0.476,0,0.798,0.088,0.444,0,0.28,0.143,0.612,0,1,0.058,0.35,0,0,0.086,0.48,0,0.69
1531,20120619,0.025,0.023,0,0,0.079,0.366,0,0.399,0.079,0.318,0,0.208,0.08,0.313,0,0,0.126,0.256,0,0.363,0.052,0.228,0,0,0.078,0.299,0,0
1531,20120626,0.021,0,0,0,0.075,0.302,0,0.101,0.075,0.182,0,0.018,0.075,0.186,0,0,0.118,0.113,0,0,0.048,0.189,0,0,0.073,0.166,0,0
1531,20120703,0.02,0.099,0,0.024,0.073,0.383,0,0.744,0.073,0.14,0,0.012,0.071,0.028,0,0,0.112,0.036,0,0,0.047,0.286,0,0,0.07,0.134,0,0
1531,20120710,0.018,0.066,0,0,0.071,0.336,0,0.512,0.071,-0.012,0,0,0.067,-0.124,0.071,0,0.107,-0.072,0,0,0.045,0.218,0,0,0.067,0.016,0,0
1531,20120717,0.016,0.09,0,0,0.069,0.24,0,0.024,0.068,-0.14,0,0,0.065,-0.248,0.839,0,0.103,-0.205,0,0,0.043,0.175,0,0,0.064,-0.096,0.006,0
1531,20120724,0.023,0.698,0,0.946,0.069,0.244,0,0.036,0.068,-0.124,0,0,0.063,-0.313,0.994,0,0.101,-0.301,0.03,0,0.046,0.542,0,0.857,0.065,0.034,0,0
1531,20120731,0.019,0.675,0,0.893,0.067,0.152,0,0,0.066,-0.223,0.024,0,0.062,-0.395,1,0,0.098,-0.458,0.804,0,0.043,0.446,0,0.381,0.062,-0.064,0,0
1531,20120807,0.016,0.642,0,0.744,0.065,0.102,0,0,0.065,-0.302,0.411,0,0.061,-0.464,1,0,0.095,-0.53,0.994,0,0.04,0.361,0,0.065,0.06,-0.125,0.077,0
1531,20120814,0.014,0.734,0,0.94,0.064,0.088,0,0,0.063,-0.384,0.81,0,0.059,-0.551,1,0,0.094,-0.523,0.994,0,0.039,0.386,0,0.179,0.059,-0.161,0.512,0
1531,20120821,0.012,0.563,0,0.72,0.063,0.076,0,0,0.062,-0.448,0.994,0,0.058,-0.64,1,0,0.091,-0.55,1,0,0.038,0.286,0,0.006,0.057,-0.226,1,0
1531,20120828,0.01,0.303,0,0.387,0.062,0.069,0,0,0.062,-0.489,0.988,0,0.058,-0.619,1,0,0.09,-0.506,1,0,0.036,0.158,0,0,0.056,-0.256,1,0
1531,20120904,0.009,0.173,0,0.25,0.061,0.101,0,0,0.061,-0.502,0.97,0,0.058,-0.667,1,0,0.09,-0.457,1,0,0.035,0.126,0,0,0.056,-0.269,1,0
1531,20120911,0.008,0.018,0.095,0.095,0.061,0.098,0,0,0.062,-0.548,1,0,0.058,-0.704,1,0,0.088,-0.468,1,0,0.034,0.059,0,0,0.055,-0.309,1,0
1531,20120918,0.011,0.71,0.012,0.911,0.06,0.075,0,0,0.062,-0.65,1,0,0.059,-0.695,1,0,0.088,-0.475,1,0,0.035,0.142,0,0,0.056,-0.309,1,0
1531,20120925,0.01,0.509,0,0.77,0.064,0.211,0,0.217,0.061,-0.602,1,0,0.059,-0.695,1,0,0.088,-0.453,1,0,0.037,0.219,0,0.23,0.056,-0.297,0.77,0
1531,20121002,0.01,0.489,0,0.726,0.072,0.436,0,0.161,0.061,-0.518,1,0,0.062,-0.57,1,0,0.088,-0.442,1,0,0.041,0.388,0,0.5,0.058,-0.186,0,0
1531,20121009,0.009,0.223,0,0.149,0.067,0.116,0,0,0.061,-0.43,1,0,0.063,-0.477,0.762,0,0.088,-0.484,1,0,0.039,0.158,0,0,0.058,-0.207,0.095,0
1531,20121016,0.008,-0.006,0.018,0,0.064,-0.042,0,0,0.061,-0.381,0.994,0,0.064,-0.447,1,0,0.088,-0.602,1,0,0.037,-0.013,0,0,0.057,-0.344,0.982,0
1531,20121023,0.008,-0.057,0.03,0,0.07,0.06,0,0.155,0.066,-0.191,0.738,0,0.069,-0.26,0.815,0.024,0.094,-0.263,0.827,0.042,0.039,-0.052,0.143,0.065,0.062,-0.177,0.827,0.036
1531,20121030,0.01,-0.01,0,0,0.101,0.593,0,0.631,0.086,0.025,0,0,0.09,0.072,0,0,0.11,0.165,0,0,0.056,0.371,0,0.351,0.079,0.211,0,0
1531,20121106,0.015,0.014,0,0,0.115,0.696,0,0.804,0.109,0.38,0,0.476,0.115,0.494,0,0.554,0.116,0.254,0,0.339,0.065,0.523,0,0.804,0.094,0.509,0,0.601
1531,20121113,0.023,-0.064,0,0,0.106,0.392,0,0.381,0.105,0.036,0,0,0.113,0.115,0,0,0.114,0.052,0,0,0.065,0.206,0,0.173,0.092,0.095,0,0
1531,20121120,0.05,0.072,0.006,0.22,0.145,0.541,0,0.5,0.144,0.427,0,0.476,0.151,0.46,0,0.494,0.132,0.125,0,0.464,0.098,0.321,0,0.488,0.124,0.343,0,0.482
1531,20121127,0.085,0.301,0,0.268,0.191,0.714,0,0.899,0.176,0.442,0,0.506,0.169,0.406,0,0.458,0.166,0.297,0,0.482,0.138,0.496,0,0.655,0.157,0.385,0,0.494
1531,20121204,0.112,0.401,0,0.53,0.23,1.163,0,0.857,0.207,0.781,0,0.851,0.199,1.071,0,0.845,0.193,0.439,0,0.702,0.171,0.82,0,0.851,0.188,0.764,0,0.845
1531,20121211,0.117,0.174,0,0.137,0.216,0.855,0,0.851,0.195,0.598,0,0.583,0.185,0.818,0,0.655,0.204,0.577,0,1,0.167,0.606,0,0.548,0.184,0.687,0,0.649
1531,20121218,0.122,0.06,0,0.101,0.197,0.56,0,0.411,0.171,0.023,0,0.095,0.158,-0.044,0,0,0.192,0.346,0,0.167,0.16,0.299,0,0.173,0.168,0.275,0,0.149
1531,20121225,0.145,0.325,0,0.44,0.23,1.113,0,1,0.195,0.696,0,0.696,0.178,0.6,0,0.577,0.202,0.578,0,0.554,0.188,0.662,0,0.804,0.19,0.814,0,0.81
1531,20130101,0.161,0.364,0,0.399,0.238,1.067,0,1,0.206,0.787,0,0.94,0.192,0.832,0,1,0.209,0.632,0,1,0.2,0.629,0,0.869,0.201,0.806,0,0.988
1531,20130108,0.145,0.129,0,0.167,0.215,0.639,0,1,0.182,0.213,0,0.095,0.168,0.168,0,0.018,0.199,0.394,0,0.44,0.18,0.295,0,0.369,0.182,0.318,0,0.363
1531,20130115,0.137,0.077,0,0,0.204,0.395,0,0.784,0.177,0.117,0,0,0.164,0.071,0,0,0.195,0.418,0,0.91,0.171,0.154,0,0.192,0.175,0.144,0,0.162
1531,20130122,0.117,-0.212,0,0,0.181,0.011,0,0,0.162,-0.208,0,0,0.154,-0.208,0,0,0.191,0.298,0,0.155,0.149,-0.133,0,0,0.161,-0.197,0,0
1531,20130129,0.153,0.102,0,0.095,0.199,0.263,0,0.548,0.158,-0.326,0,0,0.148,-0.38,0.244,0,0.187,0.119,0,0,0.177,0.193,0,0.363,0.169,-0.069,0,0
1531,20130205,0.127,-0.124,0,0,0.18,-0.066,0,0,0.156,-0.41,0.679,0,0.146,-0.469,1,0,0.184,-0.02,0,0,0.154,-0.117,0,0,0.159,-0.354,0.661,0
1531,20130212,0.146,0.165,0.03,0.381,0.182,0.057,0.03,0.375,0.149,-0.545,1,0,0.142,-0.559,1,0,0.183,-0.05,0,0,0.164,0.153,0.155,0.601,0.16,-0.223,0.387,0
1531,20130219,0.137,0.144,0,0,0.176,0.017,0,0,0.143,-0.514,0.552,0,0.138,-0.56,1,0,0.181,-0.088,0,0,0.157,0.114,0,0.025,0.155,-0.208,0,0
1531,20130226,0.14,0.147,0,0.137,0.172,-0.034,0,0,0.135,-0.527,0.685,0,0.132,-0.58,1,0,0.178,-0.215,0.113,0,0.156,0.031,0,0,0.151,-0.266,0.083,0
1531,20130305,0.108,-0.221,0,0,0.155,-0.277,0,0,0.128,-0.601,1,0,0.126,-0.665,1,0,0.175,-0.243,0.089,0,0.132,-0.285,0,0,0.138,-0.471,0.976,0
1531,20130312,0.128,-0.018,0,0,0.173,0.016,0,0.127,0.143,-0.279,0.188,0,0.121,-0.702,1,0,0.172,-0.309,0.515,0,0.151,-0.041,0,0.042,0.148,-0.29,0.176,0
1531,20130319,0.094,-0.591,0.845,0,0.154,-0.44,0.649,0,0.131,-0.598,1,0,0.118,-0.75,1,0,0.169,-0.418,1,0,0.124,-0.592,0.798,0,0.133,-0.673,1,0
1531,20130326,0.149,0.145,0.113,0.298,0.202,0.305,0.143,0.458,0.15,-0.363,0.494,0,0.128,-0.775,1,0,0.166,-0.523,1,0,0.176,0.215,0.119,0.405,0.159,-0.192,0.161,0
1531,20130402,0.126,-0.18,0.22,0,0.18,-0.093,0,0,0.143,-0.649,1,0,0.126,-0.952,1,0,0.163,-0.732,1,0,0.153,-0.162,0.107,0,0.147,-0.539,1,0
1531,20130409,0.178,0.567,0,0.75,0.222,0.606,0.128,0.738,0.171,0.043,0.268,0.037,0.152,-0.2,0.299,0.134,0.161,-0.802,1,0,0.2,0.638,0.11,0.75,0.177,0.201,0.25,0.299
1531,20130416,0.129,0.109,0,0.149,0.187,0.273,0,0.304,0.159,-0.044,0.012,0,0.141,-0.33,0.47,0,0.159,-0.702,1,0,0.158,0.187,0,0.19,0.155,-0.037,0.042,0
1531,20130423,0.079,-0.229,0.012,0,0.134,-0.186,0.286,0,0.128,-0.359,0.976,0,0.12,-0.523,1,0,0.156,-0.64,1,0,0.106,-0.251,0.363,0,0.123,-0.378,0.994,0
1531,20130430,0.057,-0.273,0.036,0,0.11,-0.249,0.244,0,0.111,-0.336,0.601,0,0.108,-0.44,0.905,0,0.15,-0.623,1,0,0.084,-0.294,0.399,0,0.107,-0.397,1,0
1531,20130507,0.043,-0.3,0.131,0,0.096,-0.323,0.696,0,0.096,-0.487,0.994,0,0.095,-0.487,0.964,0,0.136,-0.75,1,0,0.07,-0.334,0.565,0,0.093,-0.496,1,0
1531,20130514,0.036,-0.284,0.137,0,0.087,-0.302,0.25,0,0.084,-0.605,1,0,0.082,-0.617,1,0,0.125,-0.845,1,0,0.062,-0.331,0.339,0,0.083,-0.551,1,0
1531,20130521,0.031,-0.273,0.119,0,0.08,-0.286,0,0,0.077,-0.627,1,0,0.074,-0.617,1,0,0.116,-0.996,1,0,0.056,-0.312,0.071,0,0.076,-0.543,1,0
1531,20130528,0.03,-0.131,0.244,0.083,0.074,-0.299,0.036,0,0.073,-0.55,0.952,0,0.068,-0.578,1,0,0.105,-1.164,1,0,0.052,-0.21,0.048,0.071,0.07,-0.518,0.917,0
1531,20130604,0.048,0.605,0,0.542,0.076,0.008,0,0,0.076,-0.237,0.089,0,0.07,-0.403,0.893,0,0.102,-0.974,1,0,0.062,0.3,0,0.173,0.074,-0.234,0.22,0
1531,20130611,0.035,0.343,0,0.19,0.074,0.03,0,0,0.071,-0.286,0.22,0,0.069,-0.258,0.327,0,0.1,-0.783,1,0,0.055,0.186,0,0.137,0.07,-0.259,0.244,0
1531,20130618,0.042,0.916,0,1,0.072,-0.004,0,0,0.069,-0.284,0.31,0,0.068,-0.21,0.28,0,0.099,-0.813,1,0,0.057,0.46,0,0.524,0.07,-0.147,0,0
1531,20130625,0.034,0.711,0,0.827,0.074,0.266,0,0.065,0.069,-0.24,0.56,0.024,0.071,-0.006,0.405,0.06,0.097,-0.93,1,0,0.054,0.539,0,0.137,0.069,-0.089,0.5,0.065
1531,20130702,0.083,4.1,0,1,0.156,5.378,0,1,0.125,4.642,0,1,0.139,3.141,0,1,0.097,-0.832,1,0,0.12,5.278,0,1,0.12,3.975,0,1
1531,20130709,0.056,2.501,0,1,0.128,3.967,0,1,0.114,3.74,0,1,0.114,2.011,0,1,0.097,-0.716,1,0,0.092,3.794,0,1,0.102,2.95,0,1
1531,20130716,0.044,1.806,0,1,0.12,3.047,0,1,0.108,2.184,0,1,0.106,1.641,0,1,0.098,-0.565,0.881,0,0.082,3.018,0,1,0.095,2.484,0,1
1531,20130723,0.037,1.603,0,1,0.115,2.85,0,1,0.105,2.056,0,1,0.102,1.447,0,1,0.098,-0.519,0.952,0,0.076,2.894,0,1,0.091,2.189,0,1
1531,20130730,0.03,1.521,0,1,0.112,2.671,0,1,0.102,1.857,0,1,0.098,1.287,0,1,0.097,-0.494,0.821,0,0.071,2.771,0,1,0.088,1.954,0,1
1531,20130806,0.021,1.095,0,0.988,0.108,2.413,0,1,0.1,1.702,0,1,0.095,1.149,0,1,0.097,-0.415,0.708,0,0.065,2.42,0,1,0.084,1.733,0,1
1531,20130813,0.015,0.815,0,0.923,0.106,2.325,0,1,0.099,1.628,0,1,0.093,1.073,0,1,0.098,-0.291,0.048,0,0.061,2.457,0,1,0.082,1.626,0,1
1531,20130820,0.011,0.409,0.006,0.452,0.104,2.186,0,1,0.098,1.644,0,1,0.091,0.958,0,1,0.097,-0.253,0.143,0,0.058,2.239,0,1,0.08,1.453,0,1
1531,20130827,0.012,0.65,0.006,0.798,0.101,1.987,0,1,0.097,1.614,0,1,0.09,0.894,0,1,0.097,-0.193,0.202,0,0.057,2.014,0,1,0.079,1.342,0,1
1531,20130903,0.009,0.199,0.036,0.321,0.097,1.762,0,1,0.095,1.593,0,1,0.089,0.821,0,1,0.098,-0.084,0.018,0,0.053,1.638,0,1,0.077,1.191,0,1
1531,20130910,0.006,-0.277,0.363,0.03,0.092,1.533,0,1,0.093,1.517,0,1,0.087,0.754,0,1,0.097,-0.049,0,0,0.049,1.28,0,1,0.075,1.028,0,1
1531,20130917,0.008,0.015,0.107,0.196,0.089,1.389,0,1,0.089,1.415,0,1,0.086,0.711,0,1,0.096,-0.076,0.095,0,0.048,1.178,0,1,0.074,0.935,0,1
1531,20130924,0.014,1.302,0.159,0.488,0.095,1.539,0,1,0.097,1.664,0,1,0.108,1.907,0,0.976,0.099,0.056,0,0,0.055,1.554,0,1,0.083,1.564,0,1
1531,20131001,0.02,2.347,0,1,0.094,1.222,0,1,0.101,1.402,0,1,0.111,2.032,0,1,0.103,0.232,0,0,0.057,1.443,0,1,0.086,1.479,0,1
1531,20131008,0.017,1.425,0,0.988,0.089,0.8,0,1,0.097,1.019,0,1,0.102,1.317,0,1,0.102,0.171,0,0,0.053,1.041,0,1,0.081,0.848,0,1
1531,20131015,0.011,0.24,0.006,0.137,0.087,0.593,0,0.899,0.093,0.645,0,0.804,0.095,0.473,0,0.458,0.101,0.049,0,0,0.049,0.557,0,0.833,0.077,0.465,0,0.423
1531,20131022,0.007,-0.126,0.435,0,0.085,0.419,0,0.071,0.089,0.286,0,0,0.091,0.201,0,0,0.101,-0.015,0,0,0.046,0.235,0,0.042,0.074,0.188,0,0
1531,20131029,0.005,-0.183,0.655,0,0.084,0.292,0,0,0.087,0.079,0,0,0.089,0.069,0,0,0.1,-0.105,0,0,0.045,0.028,0,0,0.073,0.05,0,0
1531,20131105,0.005,-0.238,0.851,0,0.082,0.041,0,0,0.086,-0.049,0,0,0.086,-0.107,0,0,0.1,-0.252,0.607,0,0.043,-0.103,0,0,0.072,-0.114,0.101,0
1531,20131112,0.004,-0.364,1,0,0.081,-0.017,0,0,0.083,-0.244,0,0,0.083,-0.342,0.756,0,0.1,-0.225,0.286,0,0.043,-0.215,0.006,0,0.07,-0.23,0.214,0
1531,20131119,0.004,-0.543,1,0,0.081,-0.221,0.179,0,0.082,-0.41,0.804,0,0.082,-0.531,1,0,0.099,-0.329,0.946,0,0.043,-0.339,0.923,0,0.069,-0.364,1,0
1531,20131126,0.076,0.223,0.071,0.304,0.141,0.198,0.071,0.226,0.147,0.097,0.024,0.214,0.157,0.235,0.071,0.286,0.126,-0.21,0.577,0.012,0.109,0.16,0.071,0.333,0.129,0.042,0.077,0.226
1531,20131203,0.055,-0.326,0.44,0,0.125,-0.294,0.446,0,0.129,-0.469,0.81,0,0.134,-0.381,0.548,0,0.12,-0.55,1,0,0.09,-0.402,0.78,0,0.113,-0.522,0.964,0
1531,20131210,0.051,-0.597,1,0,0.115,-0.662,1,0,0.122,-0.978,1,0,0.127,-0.879,1,0,0.118,-0.822,1,0,0.083,-0.676,1,0,0.107,-0.926,1,0
1531,20131217,0.05,-0.788,1,0,0.11,-0.824,1,0,0.117,-1.338,1,0,0.122,-1.108,1,0,0.117,-1.241,1,0,0.08,-0.847,1,0,0.103,-1.206,1,0
1531,20131224,0.045,-0.959,1,0,0.107,-0.801,1,0,0.116,-1.355,1,0,0.119,-1.182,1,0,0.115,-1.35,1,0,0.076,-0.928,1,0,0.1,-1.298,1,0
1531,20131231,0.04,-0.959,1,0,0.104,-0.815,1,0,0.113,-1.253,1,0,0.115,-1.145,1,0,0.115,-1.511,1,0,0.072,-1.005,1,0,0.098,-1.327,1,0
1531,20140107,0.036,-0.92,1,0,0.101,-0.888,1,0,0.111,-1.232,1,0,0.112,-1.204,1,0,0.114,-1.759,1,0,0.069,-1.045,1,0,0.095,-1.326,1,0
1531,20140114,0.039,-0.773,1,0,0.1,-0.942,1,0,0.109,-1.14,1,0,0.11,-1.124,1,0,0.113,-2.77,1,0,0.07,-0.961,1,0,0.094,-1.238,1,0
1531,20140121,0.041,-0.842,1,0,0.097,-1.091,1,0,0.108,-1.184,1,0,0.108,-1.196,1,0,0.112,-3.18,1,0,0.069,-0.981,1,0,0.093,-1.378,1,0
1531,20140128,0.036,-0.962,1,0,0.094,-1.351,1,0,0.106,-1.34,1,0,0.104,-1.409,1,0,0.111,-3.16,1,0,0.065,-1.22,1,0,0.09,-1.645,1,0
1531,20140204,0.074,-0.686,0.881,0,0.107,-1.359,1,0,0.126,-1.049,0.726,0.054,0.135,-0.74,0.72,0.25,0.117,-2.56,1,0,0.091,-1.15,0.988,0,0.112,-1.522,0.911,0.006
1531,20140211,0.122,-0.129,0.238,0.012,0.194,0.27,0.25,0.518,0.214,0.974,0.125,0.756,0.238,2.201,0,0.756,0.172,-0.37,0.56,0.411,0.158,0.029,0.25,0.351,0.188,0.559,0.244,0.601
1531,20140218,0.104,-0.28,0.256,0,0.184,0.156,0,0.256,0.181,0.285,0,0.345,0.177,0.522,0,0.643,0.188,0.088,0,0.006,0.144,-0.12,0,0,0.166,0.076,0,0.143
1531,20140225,0.088,-0.508,0.923,0,0.165,-0.147,0,0,0.163,0.003,0,0,0.157,0.03,0,0,0.18,-0.175,0.024,0,0.127,-0.429,0.667,0,0.151,-0.291,0.357,0
1531,20140304,0.13,0.025,0.179,0.161,0.218,0.782,0,0.815,0.212,1.019,0,0.815,0.215,1.5,0,0.815,0.209,0.497,0.018,0.536,0.174,0.35,0.179,0.619,0.197,0.853,0.179,0.815
1531,20140311,0.142,0.149,0,0.083,0.216,0.757,0,0.911,0.207,0.859,0,0.952,0.202,1.107,0,1,0.205,0.486,0,0.673,0.179,0.398,0,0.565,0.194,0.739,0,0.774
1531,20140318,0.096,-0.53,0.702,0,0.174,-0.103,0.042,0,0.171,0.141,0,0.024,0.163,0.145,0,0.119,0.189,0.115,0,0,0.136,-0.413,0.506,0,0.159,-0.153,0.095,0
1531,20140325,0.068,-1.002,1,0,0.149,-0.579,1,0,0.15,-0.35,0.583,0,0.146,-0.332,0.583,0,0.182,-0.065,0,0,0.109,-0.886,1,0,0.139,-0.61,1,0
1531,20140401,0.148,0.151,0.06,0.256,0.202,0.288,0.137,0.423,0.157,-0.31,0.613,0.089,0.149,-0.346,0.649,0.101,0.179,-0.188,0,0,0.175,0.229,0.131,0.333,0.167,-0.069,0.131,0.113
1531,20140408,0.159,0.316,0,0.351,0.219,0.571,0,0.673,0.201,0.697,0,0.815,0.19,0.724,0,0.994,0.193,0.297,0,0.446,0.189,0.479,0,0.494,0.192,0.56,0,0.637
1531,20140415,0.105,-0.239,0.31,0,0.177,0.09,0,0,0.171,0.161,0,0,0.165,0.207,0,0.024,0.189,0.223,0,0,0.142,-0.081,0,0,0.161,0.049,0,0
1531,20140422,0.071,-0.361,1,0,0.145,-0.072,0,0,0.15,-0.004,0,0,0.148,0.029,0,0,0.183,0.156,0,0,0.108,-0.267,0.458,0,0.139,-0.132,0,0
1531,20140429,0.057,-0.307,0.595,0,0.122,-0.09,0,0,0.129,-0.017,0,0,0.131,-0.008,0,0,0.178,0.185,0,0.054,0.09,-0.236,0.399,0,0.123,-0.123,0,0
1531,20140506,0.048,-0.238,0.03,0,0.109,-0.081,0,0,0.113,-0.08,0,0,0.114,-0.091,0,0,0.169,0.161,0,0.024,0.079,-0.177,0,0,0.111,-0.124,0,0
1531,20140513,0.034,-0.358,0.702,0,0.088,-0.296,0.214,0,0.1,-0.191,0,0,0.099,-0.221,0,0,0.158,0.075,0,0,0.062,-0.37,0.732,0,0.096,-0.238,0,0
1531,20140520,0.025,-0.445,0.952,0,0.076,-0.477,0.982,0,0.089,-0.263,0,0,0.087,-0.287,0.012,0,0.144,-0.134,0.012,0,0.051,-0.51,0.994,0,0.084,-0.318,0,0
1531,20140527,0.015,-0.67,1,0,0.069,-0.551,0.976,0,0.08,-0.317,0.071,0,0.079,-0.322,0.083,0,0.135,-0.233,0.375,0,0.042,-0.615,1,0,0.075,-0.382,0.607,0
1531,20140603,0.008,-0.828,1,0,0.064,-0.476,0.887,0,0.073,-0.381,0.685,0,0.072,-0.348,0.732,0,0.128,-0.191,0.286,0,0.036,-0.675,1,0,0.069,-0.437,0.994,0
1531,20140610,0.006,-0.949,1,0,0.061,-0.537,1,0,0.068,-0.483,0.994,0,0.069,-0.295,0.583,0,0.123,-0.083,0,0,0.034,-0.734,1,0,0.065,-0.472,1,0
1531,20140617,0.004,-1.147,1,0,0.059,-0.624,1,0,0.065,-0.568,1,0,0.066,-0.277,0.72,0,0.119,-0.055,0,0,0.032,-0.843,1,0,0.063,-0.537,1,0
1531,20140624,0.004,-1.045,1,0,0.058,-0.633,1,0,0.063,-0.707,1,0,0.065,-0.284,0.946,0,0.114,-0.102,0,0,0.031,-0.87,1,0,0.061,-0.641,1,0
1531,20140701,0.005,-0.921,1,0,0.059,-0.563,1,0,0.062,-0.808,1,0,0.064,-0.278,1,0,0.112,-0.048,0,0,0.032,-0.791,1,0,0.06,-0.653,1,0
1531,20140708,0.004,-0.872,1,0,0.058,-0.52,1,0,0.063,-0.766,1,0,0.064,-0.3,0.982,0,0.109,-0.012,0,0,0.031,-0.824,1,0,0.059,-0.634,1,0
1531,20140715,0.004,-0.709,1,0,0.057,-0.439,1,0,0.063,-0.455,1,0,0.063,-0.313,1,0,0.107,0.011,0,0,0.031,-0.74,1,0,0.059,-0.59,1,0
1531,20140722,0.004,-0.556,0.958,0,0.057,-0.43,1,0,0.063,-0.41,0.958,0,0.063,-0.295,0.964,0,0.106,0.014,0,0,0.031,-0.66,1,0,0.059,-0.476,1,0
1531,20140729,0.006,-0.324,0.548,0,0.057,-0.398,1,0,0.064,-0.338,0.702,0,0.064,-0.292,0.768,0,0.105,0.007,0,0,0.032,-0.511,0.917,0,0.059,-0.333,1,0
1531,20140805,0.009,-0.046,0,0,0.056,-0.389,1,0,0.064,-0.321,0.458,0,0.064,-0.319,0.81,0,0.105,0.041,0,0,0.033,-0.341,0.75,0,0.06,-0.202,0.827,0
1531,20140812,0.009,0.115,0,0.006,0.055,-0.42,1,0,0.064,-0.311,0.351,0,0.065,-0.292,0.518,0,0.105,0.078,0,0,0.032,-0.299,0.661,0,0.06,-0.12,0.149,0
1531,20140819,0.009,0.148,0,0.048,0.054,-0.373,1,0,0.065,-0.311,0.435,0,0.065,-0.278,0.274,0,0.104,0.081,0,0,0.032,-0.247,0.607,0,0.059,-0.071,0.006,0
1531,20140826,0.01,0.365,0,0.405,0.054,-0.337,1,0,0.064,-0.346,0.524,0,0.066,-0.261,0.161,0,0.103,0.131,0,0,0.032,-0.192,0.256,0,0.059,-0.051,0,0
1531,20140902,0.009,0.285,0.006,0.44,0.053,-0.295,1,0,0.065,-0.277,0.143,0,0.065,-0.319,0.518,0,0.101,0.093,0,0,0.031,-0.195,0.298,0,0.059,-0.075,0.006,0
1531,20140909,0.008,0.058,0.036,0.131,0.05,-0.383,1,0,0.065,-0.31,0.054,0,0.065,-0.334,0.542,0,0.101,0.12,0,0,0.03,-0.341,0.845,0,0.058,-0.128,0.107,0
1531,20140916,0.008,0.104,0.036,0.28,0.05,-0.37,1,0,0.065,-0.399,0.69,0,0.064,-0.384,0.839,0,0.099,0.063,0,0,0.029,-0.362,0.786,0,0.057,-0.193,0.423,0